Location: Durham
(54.7770°N, 1.5720°W)
Time: 00:07:05
(UTC+00:00)

ISS - Visible Passes

Search period start: 07 March 2015 00:00
Search period end: 17 March 2015 00:00
Orbit: 396 x 408 km, 51.6° (Epoch: 06 March)

Date Brightness Start Highest point End Pass type
(mag) Time Alt. Az. Time Alt. Az. Time Alt. Az.
13 Mar -0.8 05:35:20 10° S 05:37:27 17° SSE 05:39:37 10° ESE visible
14 Mar -0.5 04:43:34 10° SSE 04:44:35 11° SE 04:45:41 10° ESE visible
15 Mar -1.5 05:24:37 10° SSW 05:27:19 25° SSE 05:30:03 10° E visible
16 Mar -1.1 04:32:55 14° S 04:34:20 18° SSE 04:36:39 10° ESE visible
